Location: Unspecified
(48.8656°N, 0.0000°E)
Time: 17:16:47
(UTC+00:00)

Transit 2A Rocket - Pass Details

Date: 17 June 2019
Orbit: 590 x 913 km, 66.7° (Epoch: 16 August)

Event Time Altitude Azimuth Distance (km) Brightness Sun altitude
Rises 17:33:32 0° 323° (NW) 3,432 9.1 21.8°
Reaches altitude 10° 17:36:50 10° 340° (NNW) 2,438 8.1 21.2°
Maximum altitude 17:40:48 19° 26° (NNE) 1,797 6.9 20.6°
Drops below altitude 10° 17:44:32 10° 71° (ENE) 2,277 7.0 20.0°
Sets 17:47:28 0° 89° (E) 3,132 7.6 19.5°
